Regional Weather Roundup
Issued by NWS

Home | Current Version | Previous Version | Text Only | Print | Product List | Glossary On
Versions: 1 2 3 4 5 6 7 8 9 10 11 12 13 14 15 16 17 18 19 20 21 22 23 24 25 26 27 28 29 30 31 32 33 34 35 36 37 38 39 40 41 42 43 44 45 46 47 48 49 50
000
ASUS43 KDMX 080208
RWRIA

WEATHER ROUNDUP FOR IOWA
NATIONAL WEATHER SERVICE DES MOINES IA
800 PM CST SUN FEB 07 2016

NOTE: "FAIR" INDICATES FEW OR NO CLOUDS BELOW 12,000 FEET WITH NO
SIGNIFICANT WEATHER AND/OR OBSTRUCTIONS TO VISIBILITY.

* - THESE STATIONS ARE NOT NWS STATIONS...THUS NOT UNDER NWS
QUALITY CONTROL.  THEY ALSO DO NOT REPORT WEATHER SUCH
AS PRECIPITATION OR FOG.

IAZ001>003-012>014-020>022-031>034-043>046-080300-
   NORTHWEST IOWA

CITY           SKY/WX    TMP DP  RH WIND       PRES   REMARKS
CARROLL *      FLURRIES  32  28  86 NW20G28   29.88R WCI  20
CHEROKEE *     CLOUDY    30  21  69 NW23G33   29.90S WCI  17
DENISON *      CLOUDY    32  23  69 NW22G33   29.90S WCI  19
LE MARS *      FLURRIES  30  25  80 NW25G33   29.97R WCI  16
ORANGE CITY *  LGT SNOW  27  21  80 NW30G46   29.93R WCI  10
SHELDON *      FLURRIES  27  21  80 NW24G35   29.89R WCI  12
SIOUX CITY     LGT SNOW  31  27  85 N20       29.96R FOG     WCI  19
SPENCER        CLOUDY    28  20  71 NW23G41   29.86R WCI  14
STORM LAKE *   CLOUDY    28  25  86 NW28G36   29.87S WCI  13
$$

IAZ055>058-069>071-079>083-090>094-080300-
   SOUTHWEST IOWA

CITY           SKY/WX    TMP DP  RH WIND       PRES   REMARKS
ATLANTIC *     CLOUDY    34  25  69 NW26G37   29.93R WCI  21
AUDUBON *      FLURRIES  32  25  74 NW20G33   29.91R WCI  20
CLARINDA *     CLOUDY    34  30  86 NW15G26   29.98F WCI  24
COUNCIL BLFS * CLOUDY    34  27  75 NW23G35   29.96S WCI  22
CRESTON *      CLOUDY    34  30  86 NW23G31   29.91S WCI  22
HARLAN  *      CLOUDY    32  25  74 NW31G38   29.96S WCI  17
LAMONI         CLOUDY    34  30  85 W18       29.90F WCI  23
RED OAK *      CLOUDY    34  30  86 NW18G28   29.96S WCI  23
SHENANDOAH *   LGT SNOW  34  32  93 NW18G30   30.00R WCI  23
$$

IAZ047>049-059>061-072>074-084-080300-
   CENTRAL IOWA

CITY           SKY/WX    TMP DP  RH WIND       PRES   REMARKS
AMES           FLURRIES  34  29  82 NW18G29   29.83S WCI  23
ANKENY *       MIX PCPN  36  32  87 NW17G25   29.84F WCI  25
BOONE *        FLURRIES  32  30  93 NW21G36   29.82S WCI  20
CHARITON *     CLOUDY    36  30  80 W15       29.87S WCI  26
DES MOINES     FLURRIES  36  29  75 NW21G33   29.85F WCI  25
GRINNELL*      CLOUDY    34  32  93 W13       29.81F WCI  25
KNOXVILLE *    CLOUDY    34  30  86 W12G20    29.84F WCI  25
MARSHALLTOWN   CLOUDY    33  31  92 W17       29.78F WCI  22
NEWTON *       MIX PCPN  34  34 100 W16       29.82F WCI  23
PELLA *        CLOUDY    34  30  86 W14G20    29.85F WCI  24
$$

IAZ004>006-015-016-023>025-035-036-080300-
   NORTH CENTRAL IOWA

CITY           SKY/WX    TMP DP  RH WIND       PRES   REMARKS
ALGONA *       CLOUDY    30  27  86 NW26G38   29.81S WCI  16
CLARION *      FLURRIES  32  28  86 NW22G31   29.80S WCI  19
ESTHERVILLE    LGT SNOW  27  25  92 NW25      29.83R VSB 3/4 WCI  12
FORT DODGE *   CLOUDY    32  27  80 NW16G25   29.84S WCI  21
MASON CITY     LGT SNOW  30  28  92 NW26G39   29.77R FOG     WCI  16
FOREST CITY *  LGT SNOW  30  28  93 NW28G33   29.77S WCI  16
WEBSTER CITY * LGT SNOW  32  32 100 NW28      29.80S WCI  18
IOWA FALLS *   LGT RAIN  34  32  93 W24       29.79S WCI  21
$$

IAZ007>011-017>019-026>030-037>042-050>054-066-080300-
   NORTHEAST IOWA

CITY           SKY/WX    TMP DP  RH WIND       PRES   REMARKS
CEDAR RAPIDS   PTCLDY    33  31  92 W14       29.77F WCI  23
CHARLES CITY * LGT SNOW  34  34 100 NW20G25   29.73S WCI  22
CLINTON *      CLEAR     33  28  81 W12       29.77F WCI  24
DECORAH *      CLOUDY    34  34 100 VRB7G15   29.68F WCI  28
DUBUQUE        MOCLDY    33  28  81 W14       29.73F WCI  23
MONTICELLO *   PTCLDY    34  28  80 W10G17    29.75F WCI  26
OELWEIN *      FLURRIES  34  34 100 W16       29.73F WCI  23
WATERLOO       CLOUDY    34  30  85 W14       29.75F WCI  25
$$

IAZ064-065-067-068-078-080300-
   EAST CENTRAL IOWA

CITY           SKY/WX    TMP DP  RH WIND       PRES   REMARKS
DAVENPORT      CLEAR     33  27  78 W12       29.78F WCI  24
IOWA CITY      PTCLDY    34  28  79 W10       29.81F WCI  26
MT. PLEASANT * MOCLDY    36  32  87 W8        29.84F WCI  29
MUSCATINE *    MOCLDY    37  27  65 W13       29.82S WCI  29
QUAD CITIES    PTCLDY    34  26  72 SW7       29.78F WCI  28
$$

IAZ062-063-075>077-085>089-095>099-080300-
   SOUTHEAST IOWA

CITY           SKY/WX    TMP DP  RH WIND       PRES   REMARKS
BURLINGTON     MOCLDY    37  28  70 W10G20    29.83R WCI  30
FAIRFIELD *    CLOUDY    36  28  75 W13       29.83F WCI  27
FORT MADISON * CLOUDY    36  30  80 W6        29.85F WCI  31
KEOKUK *       MOCLDY    39  27  60 W12       29.85S WCI  32
OSKALOOSA *    CLOUDY    34  30  86 W15       29.84F WCI  24
CENTERVILLE *    N/A    N/A N/A N/A MISG        N/A
OTTUMWA        CLOUDY    34  31  88 W13       29.84F WCI  25
WASHINGTON *   PTCLDY    36  28  75 W14       29.83F WCI  27
$$

ABBREVIATIONS USED IN REMARKS
   TC - TEMPERATURES IN CELSIUS
  WCI - WIND CHILL INDEX
   HX - HEAT INDEX
  VSB - VISIBILITY
$$





USA.gov is the U.S. government's official web portal to all federal, state and local government web resources and services.